Hourly Weather Lillehammer

Today, 25 July, Sunday

Time Temperature Precipitation Wind Pressure Humidity
00:00 +15°C° 0.1 mm 1 mps 718 mmHg 87%
01:00 +14°C° 0.1 mm 0 mps 718 mmHg 89%
02:00 +13°C° 0 mm 0 mps 718 mmHg 89%
03:00 +13°C° 0 mm 0 mps 718 mmHg 89%
04:00 +13°C° 0 mm 0 mps 717 mmHg 90%
05:00 +14°C° 0 mm 0 mps 718 mmHg 83%
06:00 +18°C° 0 mm 1 mps 718 mmHg 77%
07:00 +20°C° 0 mm 1 mps 718 mmHg 70%
08:00 +21°C° 0 mm 1 mps 718 mmHg 61%
09:00 +23°C° 0 mm 2 mps 718 mmHg 51%
10:00 +24°C° 0 mm 2 mps 718 mmHg 41%
11:00 +25°C° 0 mm 2 mps 718 mmHg 39%
12:00 +26°C° 0 mm 3 mps 718 mmHg 36%
13:00 +27°C° 0 mm 3 mps 718 mmHg 34%
14:00 +27°C° 0 mm 3 mps 718 mmHg 34%
15:00 +27°C° 0 mm 3 mps 718 mmHg 34%
16:00 +28°C° 0 mm 3 mps 718 mmHg 34%
17:00 +26°C° 0 mm 2 mps 718 mmHg 40%
18:00 +25°C° 0 mm 2 mps 718 mmHg 46%
19:00 +24°C° 0 mm 2 mps 717 mmHg 51%
20:00 +23°C° 0 mm 2 mps 718 mmHg 55%
21:00 +21°C° 0 mm 1 mps 718 mmHg 59%
22:00 +20°C° 0 mm 1 mps 718 mmHg 63%
23:00 +19°C° 0 mm 1 mps 718 mmHg 67%

Tomorrow, 26 July, Monday

Time Temperature Precipitation Wind Pressure Humidity
00:00 +18°C° 0 mm 1 mps 718 mmHg 71%
01:00 +16°C° 0 mm 1 mps 718 mmHg 75%
02:00 +16°C° 0 mm 1 mps 718 mmHg 78%
03:00 +15°C° 0 mm 1 mps 718 mmHg 80%
04:00 +14°C° 0 mm 1 mps 718 mmHg 83%
05:00 +16°C° 0 mm 1 mps 718 mmHg 77%
06:00 +18°C° 0 mm 1 mps 718 mmHg 70%
07:00 +20°C° 0 mm 1 mps 718 mmHg 64%
08:00 +20°C° 0 mm 2 mps 719 mmHg 58%
09:00 +21°C° 0 mm 2 mps 719 mmHg 52%
10:00 +22°C° 0 mm 3 mps 719 mmHg 46%
11:00 +24°C° 0 mm 3 mps 719 mmHg 43%
12:00 +24°C° 0 mm 3 mps 718 mmHg 41%
13:00 +25°C° 0 mm 4 mps 718 mmHg 38%
14:00 +22°C° 0 mm 3 mps 718 mmHg 47%
15:00 +21°C° 0 mm 3 mps 718 mmHg 56%
16:00 +20°C° 0 mm 3 mps 718 mmHg 65%
17:00 +19°C° 0.1 mm 2 mps 718 mmHg 72%
18:00 +18°C° 0.1 mm 2 mps 717 mmHg 79%
19:00 +18°C° 0.1 mm 1 mps 717 mmHg 86%
20:00 +18°C° 0.6 mm 1 mps 717 mmHg 89%
21:00 +16°C° 0.6 mm 1 mps 717 mmHg 93%
22:00 +16°C° 0.6 mm 1 mps 717 mmHg 96%
23:00 +16°C° 0.3 mm 1 mps 717 mmHg 97%

Day after tomorrow, 27 July, Tuesday

Time Temperature Precipitation Wind Pressure Humidity
00:00 +16°C° 0.3 mm 1 mps 717 mmHg 97%
01:00 +16°C° 0.3 mm 1 mps 716 mmHg 98%
02:00 +16°C° 1.6 mm 1 mps 716 mmHg 98%
03:00 +16°C° 1.6 mm 1 mps 716 mmHg 98%
04:00 +16°C° 1.6 mm 1 mps 716 mmHg 98%
05:00 +16°C° 0.3 mm 1 mps 716 mmHg 98%
06:00 +16°C° 0.3 mm 1 mps 715 mmHg 98%
07:00 +16°C° 0.3 mm 1 mps 715 mmHg 98%
08:00 +17°C° 0.5 mm 2 mps 715 mmHg 95%
09:00 +17°C° 0.5 mm 2 mps 715 mmHg 93%
10:00 +18°C° 0.5 mm 3 mps 715 mmHg 90%
11:00 +18°C° 2.3 mm 3 mps 715 mmHg 92%
12:00 +17°C° 2.3 mm 2 mps 714 mmHg 94%
13:00 +17°C° 2.3 mm 2 mps 714 mmHg 96%
14:00 +17°C° 0.8 mm 2 mps 714 mmHg 96%
15:00 +18°C° 0.8 mm 2 mps 714 mmHg 95%
16:00 +19°C° 0.8 mm 1 mps 714 mmHg 95%
17:00 +19°C° 0.6 mm 1 mps 713 mmHg 95%
18:00 +19°C° 0.6 mm 1 mps 713 mmHg 95%
19:00 +18°C° 0.6 mm 1 mps 713 mmHg 96%
20:00 +18°C° 0.2 mm 1 mps 713 mmHg 96%
21:00 +18°C° 0.2 mm 1 mps 713 mmHg 96%
22:00 +16°C° 0.2 mm 1 mps 713 mmHg 96%
23:00 +16°C° 0 mm 1 mps 713 mmHg 96%

28 July, Wednesday

Time Temperature Precipitation Wind Pressure Humidity
00:00 +16°C° 0 mm 1 mps 713 mmHg 95%
01:00 +16°C° 0 mm 1 mps 713 mmHg 94%
02:00 +15°C° 0 mm 1 mps 712 mmHg 95%
03:00 +15°C° 0 mm 1 mps 712 mmHg 96%
04:00 +15°C° 0 mm 1 mps 712 mmHg 97%
05:00 +15°C° 0 mm 1 mps 712 mmHg 95%
06:00 +16°C° 0 mm 1 mps 712 mmHg 94%
07:00 +16°C° 0 mm 1 mps 712 mmHg 93%
08:00 +18°C° 0 mm 1 mps 712 mmHg 87%
09:00 +19°C° 0 mm 1 mps 712 mmHg 81%
10:00 +19°C° 0 mm 2 mps 712 mmHg 74%
11:00 +20°C° 0 mm 2 mps 711 mmHg 67%
12:00 +21°C° 0 mm 2 mps 711 mmHg 59%
13:00 +23°C° 0 mm 2 mps 711 mmHg 51%
14:00 +24°C° 0 mm 2 mps 711 mmHg 49%
15:00 +24°C° 0 mm 3 mps 710 mmHg 47%
16:00 +24°C° 0 mm 3 mps 710 mmHg 46%
17:00 +22°C° 0 mm 3 mps 710 mmHg 51%
18:00 +21°C° 0 mm 3 mps 710 mmHg 56%
19:00 +20°C° 0 mm 3 mps 709 mmHg 61%
20:00 +18°C° 0 mm 2 mps 709 mmHg 71%
21:00 +16°C° 0 mm 2 mps 709 mmHg 81%
22:00 +15°C° 0 mm 1 mps 709 mmHg 90%
23:00 +14°C° 0 mm 1 mps 709 mmHg 91%

29 July, Thursday

Time Temperature Precipitation Wind Pressure Humidity
00:00 +14°C° 0 mm 1 mps 709 mmHg 92%
01:00 +13°C° 0 mm 1 mps 708 mmHg 93%
02:00 +13°C° 0 mm 1 mps 708 mmHg 93%
03:00 +13°C° 0 mm 1 mps 708 mmHg 94%
04:00 +12°C° 0 mm 0 mps 708 mmHg 94%
05:00 +14°C° 0 mm 1 mps 708 mmHg 90%
06:00 +15°C° 0 mm 1 mps 708 mmHg 86%
07:00 +16°C° 0 mm 1 mps 708 mmHg 82%
08:00 +18°C° 0 mm 1 mps 708 mmHg 76%
09:00 +19°C° 0 mm 1 mps 708 mmHg 70%
10:00 +19°C° 0 mm 2 mps 708 mmHg 65%
11:00 +20°C° 0.2 mm 2 mps 708 mmHg 62%
12:00 +20°C° 0.2 mm 2 mps 707 mmHg 60%
13:00 +21°C° 0.2 mm 3 mps 707 mmHg 57%
14:00 +21°C° 0.4 mm 3 mps 707 mmHg 58%
15:00 +21°C° 0.4 mm 3 mps 707 mmHg 59%
16:00 +21°C° 0.4 mm 3 mps 707 mmHg 59%
17:00 +21°C° 0.5 mm 2 mps 706 mmHg 62%
18:00 +20°C° 0.5 mm 2 mps 706 mmHg 65%
19:00 +20°C° 0.5 mm 2 mps 706 mmHg 67%
20:00 +19°C° 0.2 mm 1 mps 706 mmHg 73%
21:00 +16°C° 0.2 mm 1 mps 706 mmHg 79%
22:00 +14°C° 0.2 mm 1 mps 706 mmHg 86%
23:00 +13°C° 0 mm 1 mps 706 mmHg 88%

30 July, Friday

Time Temperature Precipitation Wind Pressure Humidity
00:00 +13°C° 0 mm 1 mps 706 mmHg 90%
01:00 +12°C° 0 mm 1 mps 707 mmHg 93%
02:00 +12°C° 0 mm 1 mps 706 mmHg 94%
03:00 +11°C° 0 mm 0 mps 706 mmHg 94%
04:00 +10°C° 0 mm 0 mps 706 mmHg 95%
05:00 +12°C° 0 mm 1 mps 706 mmHg 92%
06:00 +14°C° 0 mm 1 mps 706 mmHg 89%
07:00 +15°C° 0 mm 1 mps 706 mmHg 86%
08:00 +16°C° 0 mm 2 mps 706 mmHg 78%
09:00 +17°C° 0 mm 2 mps 705 mmHg 71%
10:00 +18°C° 0 mm 3 mps 705 mmHg 64%
11:00 +19°C° 0.2 mm 3 mps 705 mmHg 63%
12:00 +19°C° 0.2 mm 4 mps 704 mmHg 63%
13:00 +19°C° 0.2 mm 5 mps 704 mmHg 62%
14:00 +18°C° 1.1 mm 4 mps 704 mmHg 66%
15:00 +17°C° 1.1 mm 3 mps 703 mmHg 70%
16:00 +16°C° 1.1 mm 3 mps 703 mmHg 74%
17:00 +14°C° 0.3 mm 3 mps 703 mmHg 78%
18:00 +14°C° 0.3 mm 3 mps 702 mmHg 82%
19:00 +13°C° 0.3 mm 3 mps 702 mmHg 86%
20:00 +12°C° 0.1 mm 3 mps 702 mmHg 89%
21:00 +12°C° 0.1 mm 2 mps 702 mmHg 92%
22:00 +9°C° 0.1 mm 2 mps 702 mmHg 95%
23:00 +10°C° 0 mm 1 mps 702 mmHg 96%
Show more